contact:dominique.lefevre@mio.osupytheas.fr, maurice.libes@osupytheas.fr, didier.mallarino@osupytheas.fr
Project:EMSO http://www.emso-fr.org/EMSO-France
Depth: 2436.0 m
Title:EMSO Ligure Ouest : Data MII capteur AQUADOPP
Date,Latitude,Longitude,X_East,Y_North,Z_Up,Amplitude_X,Amplitude_Y,Amplitude_Z,Batterie,SoundSpeed,Heading,Pitch,Roll,Pressure,TIS,Speed,Direction
, degrees North, degrees East, m.s-1, m.s-1,m.s-1, 1, 1, 1, Volt, m.s-1, degree, degree, degree, dbar, degree_C, m.s-1, degree
2023-11-19T01:04:02,42.805,6.029,-0.007,0.014,-0.057,106.0,105.0,104.0,13.4,1505.2,343.2,-0.8,1.8,2472.001,13.28,0.015,333.4
2023-11-19T01:07:03,42.805,6.029,-0.023,0.009,-0.03,104.0,104.0,103.0,13.4,1505.2,351.0,-0.8,1.8,2471.935,13.28,0.024,291.4
2023-11-19T01:10:03,42.805,6.029,-0.006,0.032,0.008,103.0,104.0,102.0,13.4,1505.2,355.5,-0.8,1.8,2471.843,13.28,0.032,349.4
2023-11-19T01:13:03,42.805,6.029,-0.01,0.009,-0.023,104.0,104.0,103.0,13.3,1505.2,354.2,-0.7,1.8,2471.768,13.28,0.013,312.0
2023-11-19T01:16:03,42.805,6.029,-0.034,0.027,-0.033,103.0,104.0,103.0,13.3,1505.2,344.9,-0.8,1.8,2471.686,13.29,0.043,308.5
2023-11-19T01:19:03,42.805,6.029,-0.009,0.053,-0.011,104.0,104.0,103.0,13.3,1505.2,357.5,-0.8,1.8,2471.626,13.29,0.053,350.4
2023-11-19T01:22:03,42.805,6.029,-0.031,0.049,-0.035,103.0,104.0,102.0,13.3,1505.2,349.4,-0.7,1.8,2471.597,13.29,0.057,327.7
2023-11-19T01:25:03,42.805,6.029,0.0,0.018,0.007,104.0,104.0,102.0,13.4,1505.2,355.6,-0.8,1.8,2471.593,13.29,0.018,0.0
2023-11-19T01:28:03,42.805,6.029,-0.015,0.024,-0.025,103.0,104.0,102.0,13.4,1505.2,351.8,-0.8,1.8,2471.592,13.29,0.028,328.0
2023-11-19T01:31:03,42.805,6.029,-0.002,0.041,0.0,102.0,103.0,102.0,13.4,1505.2,344.8,-0.8,1.8,2471.527,13.29,0.041,357.2
2023-11-19T01:34:03,42.805,6.029,-0.007,0.014,-0.011,103.0,103.0,102.0,13.4,1505.2,344.3,-0.7,1.8,2471.504,13.29,0.015,333.4
2023-11-19T01:37:03,42.805,6.029,0.008,0.003,-0.034,103.0,103.0,102.0,13.4,1505.2,358.2,-0.8,1.8,2471.464,13.29,0.008,69.4
2023-11-19T01:40:03,42.805,6.029,-0.01,0.021,-0.032,105.0,103.0,103.0,13.3,1505.2,353.8,-0.7,1.8,2471.491,13.29,0.023,334.5
2023-11-19T01:43:03,42.805,6.029,0.004,0.006,-0.018,103.0,105.0,103.0,13.4,1505.2,337.3,-0.8,1.8,2471.436,13.29,0.007,33.7
2023-11-19T01:46:03,42.805,6.029,-0.015,0.019,-0.03,103.0,104.0,102.0,13.3,1505.2,341.5,-0.8,1.8,2471.458,13.29,0.024,321.7
2023-11-19T01:49:03,42.805,6.029,0.0,0.03,-0.02,105.0,103.0,102.0,13.4,1505.2,0.0,-0.8,1.8,2471.462,13.29,0.03,0.0
2023-11-19T01:52:03,42.805,6.029,-0.01,0.015,-0.004,103.0,103.0,102.0,13.3,1505.2,347.3,-0.8,1.8,2471.455,13.29,0.018,326.3
2023-11-19T01:55:03,42.805,6.029,0.01,0.014,-0.032,103.0,103.0,102.0,13.4,1505.2,356.0,-0.7,1.8,2471.473,13.29,0.017,35.5
2023-11-19T01:58:03,42.805,6.029,-0.008,0.029,-0.012,104.0,104.0,102.0,13.4,1505.2,341.5,-0.7,1.8,2471.441,13.29,0.03,344.6
2023-11-19T02:04:03,42.805,6.029,-0.024,0.005,-0.043,104.0,103.0,103.0,13.4,1505.2,340.7,-0.8,1.8,2471.501,13.29,0.024,281.8
2023-11-19T02:07:03,42.805,6.029,0.023,0.006,0.0,103.0,104.0,103.0,13.4,1505.2,342.8,-0.7,1.8,2471.465,13.29,0.023,75.4
2023-11-19T02:10:03,42.805,6.029,0.0,0.009,-0.041,103.0,105.0,102.0,13.4,1505.2,337.5,-0.7,1.8,2471.488,13.29,0.009,0.0
2023-11-19T02:13:03,42.805,6.029,0.023,0.016,0.022,104.0,104.0,103.0,13.4,1505.2,356.1,-0.8,1.8,2471.498,13.29,0.028,55.2
2023-11-19T02:16:03,42.805,6.029,-0.018,0.029,-0.028,103.0,104.0,102.0,13.4,1505.2,356.3,-0.7,1.8,2471.497,13.29,0.034,328.2
2023-11-19T02:19:03,42.805,6.029,-0.023,0.01,-0.049,103.0,103.0,103.0,13.4,1505.2,335.6,-0.8,1.8,2471.462,13.29,0.025,293.5
2023-11-19T02:22:03,42.805,6.029,-0.008,0.011,0.003,105.0,104.0,102.0,13.4,1505.2,351.1,-0.8,1.8,2471.497,13.29,0.013,324.0
2023-11-19T02:25:03,42.805,6.029,-0.009,0.014,-0.036,104.0,102.0,103.0,13.3,1505.2,341.3,-0.7,1.8,2471.436,13.29,0.016,327.3
2023-11-19T02:28:03,42.805,6.029,-0.012,0.025,-0.004,104.0,104.0,103.0,13.4,1505.2,347.0,-0.8,1.8,2471.426,13.29,0.027,334.4
2023-11-19T02:31:03,42.805,6.029,-0.048,0.023,-0.042,105.0,103.0,103.0,13.4,1505.2,357.4,-0.7,1.8,2471.472,13.29,0.053,295.6
2023-11-19T02:34:03,42.805,6.029,0.005,0.005,-0.032,103.0,104.0,102.0,13.3,1505.2,353.5,-0.8,1.8,2471.438,13.29,0.007,45.0
2023-11-19T02:37:03,42.805,6.029,0.002,0.016,-0.005,103.0,102.0,103.0,13.3,1505.2,357.5,-0.7,1.8,2471.398,13.29,0.016,7.1
2023-11-19T02:40:03,42.805,6.029,0.015,0.017,-0.014,105.0,104.0,103.0,13.4,1505.2,342.6,-0.8,1.8,2471.427,13.29,0.022,41.4
2023-11-19T02:43:03,42.805,6.029,0.001,-0.009,-0.028,104.0,103.0,102.0,13.3,1505.2,348.0,-0.8,1.8,2471.444,13.29,0.009,173.7
2023-11-19T02:46:03,42.805,6.029,-0.028,0.023,-0.028,104.0,104.0,103.0,13.4,1505.2,354.8,-0.8,1.8,2471.436,13.29,0.036,309.4
2023-11-19T02:49:03,42.805,6.029,0.006,-0.017,-0.052,102.0,103.0,103.0,13.4,1505.2,0.0,-0.7,1.8,2471.433,13.29,0.018,160.6
2023-11-19T02:52:03,42.805,6.029,-0.015,-0.014,-0.048,104.0,104.0,103.0,13.4,1505.2,342.4,-0.8,1.8,2471.464,13.29,0.02,227.0
2023-11-19T02:55:03,42.805,6.029,-0.008,0.013,-0.017,105.0,104.0,102.0,13.4,1505.2,341.8,-0.8,1.8,2471.445,13.29,0.015,328.4
2023-11-19T02:58:03,42.805,6.029,-0.016,0.024,-0.012,104.0,105.0,102.0,13.4,1505.2,341.3,-0.8,1.8,2471.424,13.29,0.028,326.3
2023-11-19T03:04:03,42.805,6.029,-0.011,0.006,-0.031,105.0,103.0,102.0,13.4,1505.2,341.3,-0.8,1.8,2471.477,13.29,0.012,298.6
2023-11-19T03:07:03,42.805,6.029,-0.023,0.017,-0.027,104.0,102.0,102.0,13.3,1505.2,352.5,-0.8,1.8,2471.486,13.29,0.028,306.5
2023-11-19T03:10:03,42.805,6.029,-0.015,0.021,-0.002,102.0,103.0,103.0,13.4,1505.2,341.5,-0.8,1.8,2471.485,13.29,0.025,324.5
2023-11-19T03:13:03,42.805,6.029,-0.005,-0.005,-0.024,102.0,106.0,103.0,13.4,1505.2,347.0,-0.8,1.8,2471.464,13.29,0.007,225.0
2023-11-19T03:16:03,42.805,6.029,0.006,-0.011,-0.04,105.0,104.0,104.0,13.4,1505.2,336.0,-0.8,1.8,2471.484,13.29,0.012,151.4
2023-11-19T03:19:03,42.805,6.029,-0.005,0.011,-0.036,104.0,103.0,102.0,13.4,1505.2,349.6,-0.8,1.8,2471.409,13.29,0.012,335.6
2023-11-19T03:22:03,42.805,6.029,-0.001,-0.009,-0.023,104.0,104.0,102.0,13.4,1505.2,346.5,-0.8,1.8,2471.46,13.29,0.009,186.3
2023-11-19T03:25:03,42.805,6.029,-0.008,-0.009,-0.028,104.0,104.0,104.0,13.4,1505.2,346.1,-0.8,1.8,2471.423,13.29,0.012,221.6
2023-11-19T03:28:03,42.805,6.029,-0.001,0.006,-0.042,104.0,105.0,102.0,13.4,1505.2,357.4,-0.7,1.8,2471.429,13.29,0.006,350.5
2023-11-19T03:31:03,42.805,6.029,0.0,0.023,-0.035,104.0,103.0,103.0,13.3,1505.2,354.5,-0.8,1.8,2471.435,13.29,0.023,0.0
2023-11-19T03:34:03,42.805,6.029,0.001,-0.004,-0.041,105.0,104.0,103.0,13.4,1505.2,355.2,-0.8,1.8,2471.436,13.29,0.004,166.0
2023-11-19T03:37:03,42.805,6.029,0.003,0.014,-0.02,104.0,102.0,102.0,13.4,1505.2,349.9,-0.8,1.8,2471.421,13.29,0.014,12.1
2023-11-19T03:40:03,42.805,6.029,0.018,0.012,-0.019,104.0,104.0,103.0,13.3,1505.2,347.5,-0.8,1.8,2471.476,13.29,0.021,56.3
2023-11-19T03:43:03,42.805,6.029,0.028,0.018,-0.003,104.0,106.0,103.0,13.3,1505.2,0.8,-0.8,1.8,2471.445,13.29,0.033,57.3
2023-11-19T03:46:03,42.805,6.029,-0.015,0.006,-0.015,104.0,103.0,101.0,13.3,1505.2,345.2,-0.8,1.8,2471.439,13.29,0.016,291.8
2023-11-19T03:49:03,42.805,6.029,0.002,-0.003,-0.006,105.0,104.0,103.0,13.3,1505.2,344.8,-0.8,1.8,2471.463,13.29,0.003,146.3
2023-11-19T03:52:03,42.805,6.029,0.015,0.01,-0.026,105.0,104.0,103.0,13.4,1505.2,346.7,-0.8,1.9,2471.425,13.29,0.018,56.3
2023-11-19T03:55:03,42.805,6.029,-0.017,-0.007,-0.038,104.0,104.0,103.0,13.4,1505.2,350.2,-0.8,1.8,2471.464,13.29,0.018,247.6
2023-11-19T03:58:03,42.805,6.029,-0.005,0.014,-0.017,104.0,102.0,103.0,13.4,1505.2,359.0,-0.8,1.8,2471.42,13.29,0.014,340.4
2023-11-19T04:04:03,42.805,6.029,-0.007,0.02,-0.036,102.0,103.0,103.0,13.3,1505.2,339.9,-0.7,1.8,2471.508,13.29,0.021,340.7
2023-11-19T04:07:03,42.805,6.029,-0.004,0.0,-0.026,104.0,108.0,103.0,13.4,1505.2,346.1,-0.8,1.8,2471.452,13.29,0.004,270.0
2023-11-19T04:10:03,42.805,6.029,-0.012,-0.001,-0.038,103.0,105.0,103.0,13.3,1505.2,349.4,-0.8,1.8,2471.476,13.29,0.012,265.2
2023-11-19T04:13:03,42.805,6.029,-0.004,0.001,-0.035,104.0,103.0,102.0,13.4,1505.2,0.0,-0.8,1.8,2471.415,13.29,0.004,284.0
2023-11-19T04:16:03,42.805,6.029,-0.004,0.016,-0.023,106.0,104.0,103.0,13.3,1505.2,344.5,-0.8,1.8,2471.477,13.29,0.016,346.0
2023-11-19T04:19:03,42.805,6.029,-0.005,0.007,-0.051,104.0,104.0,103.0,13.4,1505.2,345.0,-0.8,1.8,2471.461,13.29,0.008,324.5
2023-11-19T04:22:03,42.805,6.029,0.019,0.002,-0.031,105.0,104.0,103.0,13.4,1505.2,0.0,-0.7,1.8,2471.439,13.29,0.019,84.0
2023-11-19T04:25:03,42.805,6.029,0.008,-0.006,-0.012,104.0,103.0,103.0,13.3,1505.2,342.9,-0.8,1.8,2471.42,13.29,0.01,126.9
2023-11-19T04:28:03,42.805,6.029,0.002,0.013,-0.005,104.0,105.0,103.0,13.3,1505.2,356.2,-0.7,1.8,2471.466,13.29,0.013,8.7
2023-11-19T04:31:03,42.805,6.029,-0.008,0.001,-0.006,105.0,104.0,103.0,13.3,1505.2,340.9,-0.7,1.8,2471.41,13.29,0.008,277.1
2023-11-19T04:34:03,42.805,6.029,0.009,0.008,-0.043,104.0,105.0,104.0,13.4,1505.2,0.8,-0.8,1.8,2471.439,13.29,0.012,48.4
2023-11-19T04:37:03,42.805,6.029,0.003,-0.024,-0.039,105.0,104.0,103.0,13.3,1505.2,340.4,-0.8,1.8,2471.446,13.29,0.024,172.9
2023-11-19T04:40:03,42.805,6.029,-0.019,-0.009,-0.04,103.0,104.0,103.0,13.4,1505.2,0.8,-0.8,1.8,2471.44,13.29,0.021,244.7
2023-11-19T04:43:03,42.805,6.029,0.001,-0.004,-0.014,104.0,104.0,102.0,13.4,1505.2,345.0,-0.7,1.8,2471.433,13.29,0.004,166.0
2023-11-19T04:46:03,42.805,6.029,0.003,0.007,-0.013,104.0,103.0,103.0,13.4,1505.2,351.7,-0.7,1.8,2471.41,13.29,0.007,23.2
2023-11-19T04:49:03,42.805,6.029,-0.005,-0.003,-0.017,104.0,105.0,103.0,13.4,1505.2,337.0,-0.8,1.8,2471.44,13.29,0.005,239.0
2023-11-19T04:52:03,42.805,6.029,0.012,-0.019,0.006,104.0,103.0,102.0,13.3,1505.2,0.8,-0.7,1.8,2471.432,13.29,0.022,147.7
2023-11-19T04:55:03,42.805,6.029,-0.008,0.006,-0.016,104.0,105.0,103.0,13.4,1505.2,353.3,-0.8,1.8,2471.433,13.29,0.01,306.9
2023-11-19T04:58:03,42.805,6.029,0.008,0.001,-0.033,105.0,103.0,103.0,13.3,1505.2,358.3,-0.8,1.8,2471.417,13.29,0.008,82.9
2023-11-19T05:01:03,42.805,6.029,-0.001,-0.011,-0.028,104.0,103.0,103.0,13.4,1505.2,342.3,-0.8,1.8,2471.462,13.29,0.011,185.2
2023-11-19T05:04:03,42.805,6.029,-0.002,0.013,-0.012,104.0,103.0,104.0,13.4,1505.2,346.5,-0.8,1.8,2471.466,13.29,0.013,351.3
2023-11-19T05:07:03,42.805,6.029,-0.002,0.001,-0.037,104.0,103.0,102.0,13.4,1505.2,358.0,-0.8,1.8,2471.449,13.29,0.002,296.6
2023-11-19T05:10:03,42.805,6.029,0.004,0.012,-0.02,104.0,105.0,102.0,13.3,1505.2,346.8,-0.8,1.8,2471.446,13.29,0.012,18.4
2023-11-19T05:13:03,42.805,6.029,0.001,-0.002,-0.025,103.0,104.0,102.0,13.4,1505.2,349.6,-0.8,1.8,2471.44,13.29,0.002,153.4
2023-11-19T05:16:03,42.805,6.029,-0.008,0.002,-0.035,105.0,103.0,102.0,13.4,1505.2,357.4,-0.8,1.8,2471.432,13.29,0.008,284.0
2023-11-19T05:19:03,42.805,6.029,0.011,-0.008,-0.017,104.0,104.0,104.0,13.4,1505.2,347.1,-0.8,1.8,2471.399,13.29,0.013,126.0
2023-11-19T05:22:03,42.805,6.029,0.014,0.006,-0.04,104.0,104.0,103.0,13.4,1505.2,337.2,-0.8,1.8,2471.431,13.29,0.015,66.8
2023-11-19T05:25:03,42.805,6.029,0.016,-0.006,-0.017,105.0,104.0,103.0,13.4,1505.2,0.0,-0.7,1.8,2471.473,13.29,0.017,110.6
2023-11-19T05:28:03,42.805,6.029,0.012,-0.039,-0.043,104.0,104.0,103.0,13.3,1505.2,338.3,-0.8,1.8,2471.399,13.29,0.04,162.9
2023-11-19T05:31:03,42.805,6.029,-0.009,-0.008,-0.033,104.0,104.0,104.0,13.4,1505.2,0.8,-0.8,1.8,2471.411,13.29,0.012,228.4
2023-11-19T05:34:03,42.805,6.029,0.0,-0.012,-0.049,106.0,104.0,103.0,13.4,1505.2,351.3,-0.8,1.9,2471.409,13.29,0.012,180.0
2023-11-19T05:37:03,42.805,6.029,0.017,0.0,-0.018,104.0,103.0,103.0,13.3,1505.2,341.5,-0.7,1.8,2471.429,13.29,0.017,90.0
2023-11-19T05:40:03,42.805,6.029,-0.006,-0.007,-0.001,105.0,105.0,105.0,13.3,1505.2,0.0,-0.7,1.8,2471.445,13.29,0.009,220.6
2023-11-19T05:43:03,42.805,6.029,0.007,-0.014,-0.034,105.0,104.0,103.0,13.3,1505.2,353.4,-0.8,1.8,2471.414,13.29,0.015,153.4
2023-11-19T05:46:03,42.805,6.029,0.007,-0.011,-0.025,105.0,106.0,103.0,13.3,1505.2,347.3,-0.7,1.9,2471.416,13.29,0.013,147.5
2023-11-19T05:49:03,42.805,6.029,0.006,-0.004,-0.037,106.0,104.0,103.0,13.3,1505.2,336.8,-0.8,1.8,2471.387,13.29,0.007,123.7
2023-11-19T05:52:03,42.805,6.029,-0.008,-0.013,-0.038,105.0,105.0,103.0,13.3,1505.2,359.1,-0.8,1.8,2471.432,13.29,0.015,211.6
2023-11-19T05:55:03,42.805,6.029,0.0,-0.017,-0.004,104.0,105.0,103.0,13.4,1505.2,350.6,-0.8,1.8,2471.462,13.29,0.017,180.0
2023-11-19T05:58:03,42.805,6.029,0.001,-0.006,-0.025,105.0,105.0,103.0,13.3,1505.2,357.4,-0.8,1.8,2471.451,13.29,0.006,170.5
2023-11-19T06:04:03,42.805,6.029,0.013,-0.02,-0.019,104.0,105.0,103.0,13.4,1505.2,340.5,-0.8,1.8,2471.508,13.28,0.023,147.0
2023-11-19T06:07:03,42.805,6.029,-0.002,0.0,-0.004,104.0,106.0,103.0,13.3,1505.2,346.4,-0.8,1.8,2471.491,13.28,0.002,270.0
2023-11-19T06:10:03,42.805,6.029,-0.001,-0.011,-0.01,106.0,104.0,103.0,13.3,1505.2,348.1,-0.8,1.8,2471.456,13.29,0.011,185.2
2023-11-19T06:13:03,42.805,6.029,0.0,-0.013,-0.022,106.0,105.0,103.0,13.3,1505.2,336.2,-0.8,1.8,2471.454,13.29,0.013,180.0
2023-11-19T06:16:03,42.805,6.029,-0.007,0.0,-0.004,105.0,104.0,104.0,13.4,1505.2,0.9,-0.8,1.8,2471.457,13.29,0.007,270.0
2023-11-19T06:19:03,42.805,6.029,-0.004,-0.028,-0.048,104.0,104.0,102.0,13.3,1505.2,348.5,-0.8,1.8,2471.459,13.29,0.028,188.1
2023-11-19T06:22:03,42.805,6.029,0.01,-0.015,-0.053,104.0,104.0,103.0,13.3,1505.2,0.0,-0.7,1.8,2471.451,13.29,0.018,146.3
2023-11-19T06:25:03,42.805,6.029,0.0,-0.024,-0.059,106.0,105.0,103.0,13.4,1505.2,352.5,-0.7,1.8,2471.424,13.29,0.024,180.0
2023-11-19T06:28:03,42.805,6.029,0.0,-0.015,-0.032,104.0,104.0,103.0,13.3,1505.2,334.9,-0.8,1.8,2471.485,13.29,0.015,180.0
2023-11-19T06:31:03,42.805,6.029,-0.005,-0.011,-0.045,105.0,105.0,103.0,13.4,1505.2,358.1,-0.8,1.8,2471.477,13.29,0.012,204.4
2023-11-19T06:34:03,42.805,6.029,-0.012,-0.012,-0.017,104.0,105.0,105.0,13.3,1505.2,347.5,-0.8,1.8,2471.472,13.29,0.016,225.0
2023-11-19T06:37:03,42.805,6.029,-0.001,-0.021,-0.021,106.0,104.0,104.0,13.4,1505.2,340.2,-0.7,1.8,2471.453,13.29,0.021,182.7
2023-11-19T06:40:03,42.805,6.029,-0.005,-0.015,-0.062,105.0,105.0,103.0,13.3,1505.2,346.8,-0.8,1.8,2471.433,13.29,0.015,198.4
2023-11-19T06:43:03,42.805,6.029,-0.015,-0.018,-0.047,105.0,104.0,104.0,13.4,1505.2,335.9,-0.8,1.8,2471.463,13.29,0.023,219.8
2023-11-19T06:46:03,42.805,6.029,-0.018,-0.007,-0.014,105.0,104.0,103.0,13.4,1505.2,344.7,-0.8,1.8,2471.47,13.29,0.019,248.8
2023-11-19T06:49:03,42.805,6.029,-0.012,-0.022,-0.054,104.0,104.0,103.0,13.4,1505.2,351.1,-0.7,1.8,2471.423,13.29,0.025,208.6
2023-11-19T06:52:03,42.805,6.029,0.0,-0.014,-0.034,106.0,105.0,103.0,13.4,1505.2,342.0,-0.7,1.8,2471.429,13.29,0.014,180.0
2023-11-19T06:55:03,42.805,6.029,-0.002,-0.025,-0.02,105.0,104.0,104.0,13.3,1505.2,345.9,-0.7,1.8,2471.481,13.29,0.025,184.6
2023-11-19T06:58:03,42.805,6.029,-0.029,-0.008,-0.014,105.0,104.0,105.0,13.4,1505.2,341.5,-0.8,1.8,2471.433,13.29,0.03,254.6
2023-11-19T07:04:03,42.805,6.029,-0.02,-0.002,-0.04,106.0,105.0,103.0,13.4,1505.2,346.4,-0.8,1.8,2471.519,13.28,0.02,264.3
2023-11-19T07:07:03,42.805,6.029,-0.006,-0.011,-0.023,106.0,105.0,104.0,13.3,1505.2,1.8,-0.8,1.8,2471.534,13.29,0.012,208.6
2023-11-19T07:10:03,42.805,6.029,-0.018,-0.013,-0.028,105.0,105.0,103.0,13.3,1505.2,353.6,-0.8,1.8,2471.466,13.29,0.022,234.2
2023-11-19T07:13:03,42.805,6.029,0.01,0.001,-0.001,105.0,105.0,103.0,13.4,1505.2,352.8,-0.7,1.8,2471.505,13.29,0.01,84.3
2023-11-19T07:16:03,42.805,6.029,-0.011,-0.012,-0.026,106.0,105.0,103.0,13.4,1505.2,345.7,-0.8,1.8,2471.505,13.29,0.016,222.5
2023-11-19T07:19:03,42.805,6.029,-0.022,-0.001,-0.03,105.0,105.0,104.0,13.3,1505.2,338.7,-0.8,1.8,2471.51,13.29,0.022,267.4
2023-11-19T07:22:03,42.805,6.029,0.002,-0.007,-0.026,106.0,104.0,103.0,13.4,1505.2,345.7,-0.7,1.8,2471.492,13.29,0.007,164.1
2023-11-19T07:25:03,42.805,6.029,-0.024,-0.009,-0.049,105.0,104.0,104.0,13.4,1505.2,351.1,-0.8,1.8,2471.504,13.29,0.025,249.4
2023-11-19T07:28:03,42.805,6.029,-0.003,-0.015,-0.041,106.0,103.0,104.0,13.4,1505.2,342.0,-0.8,1.8,2471.47,13.29,0.015,191.3
2023-11-19T07:31:03,42.805,6.029,0.008,-0.018,-0.05,106.0,104.0,102.0,13.3,1505.2,339.6,-0.8,1.8,2471.522,13.29,0.019,156.0
2023-11-19T07:34:03,42.805,6.029,-0.013,-0.018,-0.021,105.0,104.0,104.0,13.4,1505.2,346.4,-0.8,1.8,2471.521,13.29,0.022,215.8
2023-11-19T07:37:03,42.805,6.029,-0.006,-0.025,-0.012,106.0,104.0,104.0,13.4,1505.2,339.8,-0.8,1.8,2471.474,13.29,0.025,193.5
2023-11-19T07:40:03,42.805,6.029,-0.023,-0.011,-0.031,106.0,104.0,104.0,13.4,1505.2,351.0,-0.8,1.8,2471.497,13.29,0.025,244.4
2023-11-19T07:43:03,42.805,6.029,-0.007,-0.009,-0.039,106.0,104.0,104.0,13.4,1505.2,347.2,-0.8,1.8,2471.486,13.29,0.011,217.9
2023-11-19T07:46:03,42.805,6.029,0.002,-0.007,-0.023,105.0,104.0,103.0,13.4,1505.2,343.9,-0.7,1.8,2471.494,13.29,0.007,164.1
2023-11-19T07:49:03,42.805,6.029,-0.029,-0.02,-0.044,106.0,105.0,104.0,13.4,1505.2,344.1,-0.7,1.8,2471.493,13.29,0.035,235.4
2023-11-19T07:52:03,42.805,6.029,-0.004,-0.014,-0.019,106.0,105.0,103.0,13.4,1505.2,333.8,-0.8,1.8,2471.488,13.29,0.014,195.9
2023-11-19T07:55:03,42.805,6.029,0.002,-0.006,-0.032,105.0,104.0,104.0,13.4,1505.2,339.3,-0.7,1.8,2471.514,13.29,0.006,161.6
2023-11-19T07:58:03,42.805,6.029,-0.01,-0.014,-0.021,107.0,105.0,103.0,13.4,1505.2,335.5,-0.8,1.8,2471.525,13.29,0.017,215.5
2023-11-19T15:04:02,42.805,6.029,-0.027,-0.002,-0.031,106.0,106.0,102.0,13.4,1505.2,355.4,-0.8,1.8,2472.022,13.28,0.027,265.8
2023-11-19T15:07:03,42.805,6.029,-0.021,-0.019,-0.017,107.0,103.0,104.0,13.3,1505.2,335.5,-0.8,1.8,2471.905,13.28,0.028,227.9
2023-11-19T15:10:03,42.805,6.029,-0.037,0.009,-0.014,106.0,106.0,104.0,13.4,1505.2,349.7,-0.8,1.8,2471.856,13.28,0.038,283.7
2023-11-19T15:13:03,42.805,6.029,-0.02,-0.011,-0.018,105.0,105.0,104.0,13.4,1505.2,339.1,-0.8,1.8,2471.741,13.28,0.022,241.2
2023-11-19T15:16:03,42.805,6.029,-0.013,0.002,-0.016,106.0,106.0,103.0,13.4,1505.2,356.2,-0.7,1.8,2471.701,13.29,0.013,278.7
2023-11-19T15:19:03,42.805,6.029,-0.017,-0.002,-0.032,106.0,105.0,103.0,13.4,1505.2,350.0,-0.8,1.8,2471.672,13.29,0.017,263.3
2023-11-19T15:22:03,42.805,6.029,-0.012,0.022,-0.011,106.0,105.0,105.0,13.3,1505.2,1.7,-0.8,1.9,2471.627,13.29,0.025,331.4
2023-11-19T15:25:03,42.805,6.029,-0.036,0.017,-0.027,106.0,105.0,103.0,13.3,1505.2,352.6,-0.8,1.8,2471.576,13.29,0.039,295.3
2023-11-19T15:28:03,42.805,6.029,-0.01,0.003,-0.027,107.0,105.0,103.0,13.4,1505.2,355.9,-0.8,1.8,2471.591,13.29,0.01,286.7
2023-11-19T15:31:03,42.805,6.029,-0.021,0.0,-0.041,106.0,106.0,103.0,13.3,1505.2,348.3,-0.7,1.8,2471.556,13.29,0.021,270.0
2023-11-19T15:34:03,42.805,6.029,-0.016,0.002,-0.012,107.0,106.0,105.0,13.3,1505.2,337.6,-0.8,1.8,2471.558,13.29,0.016,277.1
2023-11-19T15:37:03,42.805,6.029,-0.01,0.0,-0.044,106.0,107.0,104.0,13.4,1505.2,338.0,-0.8,1.8,2471.517,13.29,0.01,270.0
2023-11-19T15:40:03,42.805,6.029,-0.03,0.0,-0.042,106.0,105.0,104.0,13.4,1505.2,344.8,-0.8,1.8,2471.51,13.29,0.03,270.0
2023-11-19T15:43:03,42.805,6.029,-0.022,0.003,0.009,106.0,106.0,104.0,13.4,1505.2,337.7,-0.8,1.8,2471.551,13.29,0.022,277.8
2023-11-19T15:46:03,42.805,6.029,-0.024,0.018,-0.014,106.0,106.0,103.0,13.4,1505.2,0.9,-0.7,1.8,2471.553,13.29,0.03,306.9
2023-11-19T15:49:03,42.805,6.029,-0.025,0.0,-0.038,106.0,106.0,104.0,13.4,1505.2,352.7,-0.8,1.8,2471.529,13.29,0.025,270.0
2023-11-19T15:52:03,42.805,6.029,-0.018,0.003,-0.009,105.0,107.0,104.0,13.4,1505.2,0.0,-0.8,1.8,2471.543,13.29,0.018,279.5
2023-11-19T15:55:03,42.805,6.029,-0.016,-0.015,-0.001,106.0,105.0,104.0,13.4,1505.2,350.5,-0.7,1.8,2471.536,13.29,0.021,226.9
2023-11-19T15:58:03,42.805,6.029,-0.029,-0.005,-0.008,106.0,106.0,105.0,13.4,1505.2,353.5,-0.8,1.8,2471.546,13.29,0.029,260.2
2023-11-19T16:04:03,42.805,6.029,-0.016,-0.016,-0.01,106.0,106.0,103.0,13.4,1505.2,354.9,-0.8,1.8,2471.608,13.29,0.022,225.0
2023-11-19T16:07:03,42.805,6.029,-0.021,0.015,-0.035,107.0,106.0,105.0,13.4,1505.2,355.6,-0.8,1.8,2471.598,13.29,0.025,305.5
2023-11-19T16:10:03,42.805,6.029,-0.02,-0.008,-0.051,107.0,106.0,104.0,13.4,1505.2,357.4,-0.8,1.8,2471.597,13.29,0.021,248.2
2023-11-19T16:13:03,42.805,6.029,0.008,0.005,0.004,107.0,106.0,103.0,13.4,1505.2,354.3,-0.8,1.8,2471.566,13.29,0.009,58.0
2023-11-19T16:16:03,42.805,6.029,-0.033,0.004,-0.032,107.0,107.0,103.0,13.4,1505.2,355.2,-0.8,1.8,2471.532,13.29,0.033,276.9
2023-11-19T16:19:03,42.805,6.029,-0.011,0.003,-0.005,106.0,106.0,105.0,13.4,1505.2,348.2,-0.8,1.8,2471.545,13.29,0.011,285.3
2023-11-19T16:22:03,42.805,6.029,-0.031,-0.003,-0.01,107.0,107.0,103.0,13.4,1505.2,343.3,-0.8,1.8,2471.537,13.29,0.031,264.5
2023-11-19T16:25:03,42.805,6.029,-0.031,-0.002,-0.022,107.0,106.0,103.0,13.4,1505.2,342.8,-0.8,1.8,2471.525,13.29,0.031,266.3
2023-11-19T16:28:03,42.805,6.029,-0.018,0.003,-0.032,106.0,105.0,104.0,13.4,1505.2,338.9,-0.8,1.8,2471.564,13.29,0.018,279.5
2023-11-19T16:31:03,42.805,6.029,-0.013,-0.017,-0.026,106.0,105.0,105.0,13.3,1505.2,349.7,-0.8,1.8,2471.522,13.29,0.021,217.4
2023-11-19T16:34:03,42.805,6.029,0.0,-0.02,0.013,105.0,104.0,104.0,13.4,1505.2,349.3,-0.7,1.8,2471.505,13.29,0.02,180.0
2023-11-19T16:37:03,42.805,6.029,-0.004,-0.007,-0.008,106.0,106.0,104.0,13.3,1505.2,349.0,-0.8,1.9,2471.541,13.29,0.008,209.7
2023-11-19T16:40:03,42.805,6.029,-0.027,0.007,-0.026,108.0,106.0,103.0,13.4,1505.2,341.8,-0.7,1.8,2471.483,13.29,0.027,284.5
2023-11-19T16:43:03,42.805,6.029,-0.028,0.019,-0.024,106.0,107.0,104.0,13.4,1505.2,354.3,-0.8,1.8,2471.515,13.29,0.033,304.2
2023-11-19T16:46:03,42.805,6.029,-0.045,-0.005,-0.033,106.0,106.0,104.0,13.3,1505.2,339.4,-0.8,1.8,2471.515,13.29,0.045,263.7
2023-11-19T16:49:03,42.805,6.029,-0.012,0.003,-0.025,107.0,105.0,104.0,13.4,1505.2,343.3,-0.8,1.8,2471.508,13.29,0.012,284.0
2023-11-19T16:52:03,42.805,6.029,-0.025,-0.004,-0.038,106.0,105.0,104.0,13.4,1505.2,349.7,-0.8,1.8,2471.507,13.29,0.025,260.9
2023-11-19T16:55:03,42.805,6.029,-0.017,-0.004,0.002,106.0,104.0,104.0,13.4,1505.2,341.0,-0.8,1.8,2471.5,13.29,0.017,256.8
2023-11-19T16:58:03,42.805,6.029,-0.034,-0.015,-0.001,106.0,105.0,105.0,13.3,1505.2,340.0,-0.8,1.8,2471.533,13.29,0.037,246.2
2023-11-19T17:04:03,42.805,6.029,-0.019,-0.014,-0.009,107.0,105.0,104.0,13.4,1505.2,344.7,-0.8,1.8,2471.584,13.29,0.023,233.6
2023-11-19T17:07:03,42.805,6.029,-0.027,-0.002,-0.025,107.0,105.0,104.0,13.3,1505.2,349.9,-0.8,1.8,2471.557,13.29,0.027,265.8
2023-11-19T17:10:03,42.805,6.029,-0.034,-0.003,-0.045,105.0,107.0,104.0,13.4,1505.2,343.7,-0.8,1.8,2471.539,13.29,0.034,265.0
2023-11-19T17:13:03,42.805,6.029,-0.027,-0.018,-0.039,105.0,106.0,104.0,13.4,1505.2,338.0,-0.8,1.9,2471.533,13.29,0.032,236.3
2023-11-19T17:16:03,42.805,6.029,0.012,-0.011,-0.028,106.0,106.0,103.0,13.4,1505.2,343.9,-0.8,1.8,2471.533,13.29,0.016,132.5
2023-11-19T17:19:03,42.805,6.029,-0.023,0.004,-0.047,106.0,106.0,103.0,13.4,1505.2,349.1,-0.7,1.9,2471.52,13.29,0.023,279.9
2023-11-19T17:22:03,42.805,6.029,-0.016,-0.008,-0.027,106.0,105.0,104.0,13.4,1505.2,344.1,-0.7,1.8,2471.515,13.29,0.017,243.4
2023-11-19T17:25:03,42.805,6.029,-0.021,0.0,-0.036,107.0,105.0,103.0,13.4,1505.2,340.9,-0.8,1.8,2471.5,13.29,0.021,270.0
2023-11-19T17:28:03,42.805,6.029,-0.018,0.0,-0.031,106.0,105.0,104.0,13.4,1505.2,0.8,-0.7,1.8,2471.511,13.29,0.018,270.0
2023-11-19T17:31:03,42.805,6.029,-0.013,-0.019,-0.03,106.0,106.0,103.0,13.4,1505.2,351.3,-0.8,1.8,2471.481,13.29,0.023,214.4
2023-11-19T17:34:03,42.805,6.029,-0.008,-0.018,-0.019,106.0,106.0,104.0,13.3,1505.2,351.5,-0.8,1.8,2471.525,13.29,0.019,204.0
2023-11-19T17:37:03,42.805,6.029,-0.049,0.009,-0.024,105.0,105.0,103.0,13.4,1505.2,353.6,-0.8,1.8,2471.517,13.29,0.049,280.4
2023-11-19T17:40:03,42.805,6.029,-0.012,-0.002,0.001,107.0,106.0,105.0,13.4,1505.2,351.8,-0.8,1.8,2471.51,13.29,0.012,260.5
2023-11-19T17:43:03,42.805,6.029,-0.049,0.012,-0.04,106.0,106.0,104.0,13.4,1505.2,352.1,-0.8,1.8,2471.511,13.29,0.05,283.8
2023-11-19T17:46:03,42.805,6.029,-0.017,-0.018,-0.029,107.0,106.0,103.0,13.3,1505.2,343.5,-0.8,1.8,2471.529,13.29,0.024,223.4
2023-11-19T17:49:03,42.805,6.029,-0.01,0.006,-0.017,104.0,105.0,104.0,13.3,1505.2,355.3,-0.8,1.8,2471.511,13.29,0.011,301.0
2023-11-19T17:52:03,42.805,6.029,-0.015,0.001,-0.02,106.0,106.0,104.0,13.4,1505.2,344.2,-0.7,1.8,2471.496,13.29,0.015,273.8